Watsonville, CA

1:39 PM PDT on June 25, 2017 (GMT -0700)
Watsonville Municipal

Weather History for KWVI - January, 2013

Change the Weather History Date:

Friday, January 25, 2013

  Actual Average Record
Temperature  
Mean Temperature 59 °F 51 °F  
Max Temperature 69 °F 62 °F 82 °F (2015)
Min Temperature 49 °F 40 °F 32 °F (2017)
Degree Days  
Heating Degree Days 6    
Month to date heating degree days 408  
Since 1 July heating degree days 1636  
Cooling Degree Days 0    
Month to date cooling degree days 0  
Year to date cooling degree days 0  
Growing Degree Days 8 (Base 50)    
Moisture  
Dew Point 52 °F    
Average Humidity 80    
Maximum Humidity 96    
Minimum Humidity 63    
Precipitation  
Precipitation 0.00 in - 1.87 in (1952)
Month to date precipitation 0.68  
Year to date precipitation 0.68  
Since 1 July precipitation 11.62  
Sea Level Pressure  
Sea Level Pressure 30.12 in    
Wind  
Wind Speed 2 mph (SSE)    
Max Wind Speed 10 mph    
Max Gust Speed 13 mph    
Visibility 7 miles    
Events      
T = Trace of Precipitation, MM = Missing Value Source: NWS Daily Summary

Daily Weather History Graph

Daily Weather History Graph

Search for Another Location

Airport or City:

Trip Planner

Search our weather history database for the weather conditions in past years. The results will help you decide how hot, cold, wet, or windy it might be!

Date:

Astronomy

Jan. 25, 2013 Rise Set
Actual Time 7:14 AM PST 5:25 PM PST
Civil Twilight 6:46 AM PST 5:52 PM PST
Nautical Twilight 6:15 AM PST 6:24 PM PST
Astronomical Twilight 5:44 AM PST 6:55 PM PST
Moon 4:27 PM PST 5:57 AM PST
Length of Visible Light 11h 06m
Length of Day
10h 10m
Waxing Gibbous, 98% of the Moon is Illuminated
Jan 25
Waxing Gibbous
Jan 26
Full
Feb 3
Last Quarter
Feb 9
New
Feb 17
First Quarter

Hourly Weather History & Observations

Time (PST) Temp. Dew Point Humidity Pressure Visibility Wind Dir Wind Speed Gust Speed Precip Events Conditions
12:03 AM 53.6 °F 51.8 °F 94% 30.19 in 5.0 mi Calm Calm - N/A   Overcast
12:15 AM 53.6 °F 51.8 °F 94% 30.19 in 4.0 mi East 3.5 mph - N/A   Overcast
12:40 AM 53.6 °F 51.8 °F 94% 30.19 in 6.0 mi Calm Calm - N/A   Overcast
12:53 AM 54.0 °F 52.0 °F 93% 30.19 in 6.0 mi Calm Calm - N/A   Overcast
1:53 AM 53.1 °F 52.0 °F 96% 30.19 in 5.0 mi Calm Calm - N/A   Overcast
2:16 AM 53.6 °F 51.8 °F 94% 30.19 in 5.0 mi Calm Calm - N/A   Overcast
2:53 AM 53.1 °F 52.0 °F 96% 30.19 in 5.0 mi Calm Calm - N/A   Overcast
3:41 AM 53.6 °F 51.8 °F 94% 30.17 in 4.0 mi Calm Calm - N/A   Overcast
3:53 AM 53.1 °F 51.1 °F 93% 30.17 in 3.0 mi Calm Calm - N/A   Overcast
4:53 AM 53.1 °F 51.1 °F 93% 30.16 in 6.0 mi Calm Calm - N/A   Overcast
5:53 AM 52.0 °F 50.0 °F 93% 30.15 in 6.0 mi ENE 5.8 mph - N/A   Scattered Clouds
6:53 AM 50.0 °F 48.9 °F 96% 30.15 in 4.0 mi WNW 3.5 mph - N/A   Clear
7:33 AM 50.0 °F 48.2 °F 94% 30.15 in 2.0 mi Calm Calm - N/A   Clear
7:39 AM 48.2 °F 48.2 °F 100% 30.15 in 1.2 mi Calm Calm - N/A   Clear
7:50 AM 51.8 °F 48.2 °F 88% 30.14 in 2.0 mi Calm Calm - N/A   Clear
7:53 AM 51.1 °F 50.0 °F 96% 30.14 in 2.5 mi Calm Calm - N/A   Clear
8:03 AM 51.8 °F 50.0 °F 94% 30.15 in 3.0 mi Calm Calm - N/A   Clear
8:53 AM 55.0 °F 52.0 °F 89% 30.16 in 6.0 mi Calm Calm - N/A   Clear
9:53 AM 59.0 °F 53.1 °F 81% 30.16 in 10.0 mi Calm Calm - N/A   Clear
10:53 AM 63.0 °F 55.9 °F 78% 30.15 in 10.0 mi East 6.9 mph - N/A   Clear
11:53 AM 64.0 °F 55.0 °F 73% 30.12 in 10.0 mi Variable 4.6 mph - N/A   Clear
12:53 PM 68.0 °F 55.9 °F 65% 30.08 in 10.0 mi East 5.8 mph - N/A   Clear
1:53 PM 68.0 °F 55.9 °F 65% 30.07 in 10.0 mi ESE 9.2 mph - N/A   Partly Cloudy
2:53 PM 66.0 °F 55.0 °F 68% 30.06 in 10.0 mi West 6.9 mph - N/A   Clear
3:53 PM 66.9 °F 55.0 °F 66% 30.04 in 10.0 mi South 5.8 mph - N/A   Overcast
4:53 PM 64.0 °F 54.0 °F 70% 30.04 in 10.0 mi Calm Calm - N/A   Clear
5:53 PM 62.1 °F 54.0 °F 75% 30.04 in 10.0 mi Calm Calm - N/A   Partly Cloudy
6:53 PM 57.0 °F 54.0 °F 89% 30.04 in 10.0 mi Calm Calm - N/A   Clear
7:53 PM 53.1 °F 51.1 °F 93% 30.05 in 10.0 mi WSW 3.5 mph - N/A   Clear
8:53 PM 54.0 °F 52.0 °F 93% 30.06 in 10.0 mi WNW 3.5 mph - N/A   Clear
9:27 PM 53.6 °F 51.8 °F 94% 30.06 in 10.0 mi Calm Calm - N/A   Mostly Cloudy
9:53 PM 54.0 °F 52.0 °F 93% 30.06 in 10.0 mi Calm Calm - N/A   Overcast
10:18 PM 53.6 °F 51.8 °F 94% 30.06 in 10.0 mi WNW 3.5 mph - N/A   Overcast
10:40 PM 53.6 °F 51.8 °F 94% 30.06 in 10.0 mi Calm Calm - N/A   Overcast
10:53 PM 54.0 °F 52.0 °F 93% 30.06 in 10.0 mi Calm Calm - N/A   Overcast
11:06 PM 53.6 °F 51.8 °F 94% 30.06 in 10.0 mi Calm Calm - N/A   Overcast
11:48 PM 53.6 °F 51.8 °F 94% 30.05 in 10.0 mi Calm Calm - N/A   Overcast
11:53 PM 53.1 °F 51.1 °F 93% 30.05 in 9.0 mi Calm Calm - N/A   Overcast